Regional Weather Roundup
Issued by NWS Upton, NY

Current Version | Previous Version | Text Only | Print | Product List | Glossary On
Versions: 1 2 3 4 5 6 7 8 9 10 11 12 13 14 15 16 17 18 19 20 21 22 23 24 25 26 27 28 29 30 31 32 33 34 35 36 37 38 39 40 41 42 43 44 45 46 47 48 49 50
000 ASUS41 KOKX 191608 RWROKX REGIONAL WEATHER ROUNDUP NATIONAL WEATHER SERVICE NEW YORK NY 1100 AM EST SUN FEB 19 2017 NOTE: "FAIR" INDICATES FEW OR NO CLOUDS BELOW 12,000 FEET WITH NO SIGNIFICANT WEATHER AND/OR OBSTRUCTIONS TO VISIBILITY. NYZ071-072-176-178-NJZ106-104-191700- NEW YORK CITY METRO AREA CITY SKY/WX TMP DP RH WIND PRES REMARKS Central Park MOSUNNY 61 36 39 W8 29.83S Wall St Helipt NOT AVBL LaGuardia APRT PTSUNNY 59 36 42 NW14 29.80F Kennedy INTL PTSUNNY 63 38 39 W13 29.82F Breezy Point N/A 55 N/A N/A W8 N/A Newark/Liberty PTSUNNY 62 37 39 W10 29.82S Teterboro PTSUNNY 62 38 40 NW13 29.81S $$ NYZ177-179-078>081-191700- LONG ISLAND NEW YORK CITY SKY/WX TMP DP RH WIND PRES REMARKS Jones Beach N/A 52 N/A N/A W12 N/A Matinecock PT NOT AVBL Farmingdale MOSUNNY 61 35 37 NW13G18 29.81S MacArthur/ISP PTSUNNY 62 37 39 NW12 29.79F Shirley LGT RAIN 60 37 42 NW13 29.80S Westhampton MOSUNNY 60 36 40 NW10 29.81S Southampton NOT AVBL Bridgehampton NOT AVBL East Hampton N/A 58 36 43 W10 29.78S Montauk N/A 52 37 56 W8 29.79S $$ NYZ052-065-067-191700- HUDSON VALLEY CITY SKY/WX TMP DP RH WIND PRES REMARKS White Plains CLOUDY 57 35 43 W15 29.79S Newburgh PTSUNNY 50 37 62 W14 29.82R Montgomery MOSUNNY 54 37 52 VRB6 29.80S Poughkeepsie CLOUDY 50 35 56 W10 29.80R Albany PTSUNNY 50 34 54 W8 29.78S $$ NJZ001-105-106-008-010-013-015-019>022-104-191700- NEW JERSEY CITY SKY/WX TMP DP RH WIND PRES REMARKS Newark/Liberty PTSUNNY 62 37 39 W10 29.82S Teterboro PTSUNNY 62 38 40 NW13 29.81S Caldwell PTSUNNY 61 35 37 NW9 29.83R Somerville PTSUNNY 62 38 40 VRB6 29.82S Linden NOT AVBL Sussex CLOUDY 58 37 45 VRB5 29.82R Andover N/A 58 37 45 VRB5 29.83R Trenton SUNNY 64 39 39 NW10 29.84F Millville CLOUDY 61 41 47 NW7 29.87S Atlantic City CLOUDY 62 38 40 W8 29.86S Wrightstown SUNNY 64 40 40 NW9 29.82F Toms River SUNNY 64 40 41 NW13 29.85S Belmar MOSUNNY 67 39 35 W16 29.84S $$ PAZ047>061-062-071-191700- EASTERN PENNSYLVANIA CITY SKY/WX TMP DP RH WIND PRES REMARKS Philadelphia MOSUNNY 63 39 41 NW9 29.87F Allentown SUNNY 61 39 44 W12 29.86R Scranton CLOUDY 54 39 57 W8 29.85S $$ CTZ002-004>006-009-010-012-RIZ004-006-007-MAZ004-011-015-191700- SOUTHERN NEW ENGLAND IN CT CITY SKY/WX TMP DP RH WIND PRES REMARKS Bradley INTL CLOUDY 51 33 50 W9G17 29.76S Hartford CLOUDY 55 36 48 SW6 29.77S Danbury PTSUNNY 54 34 46 W9 29.80S Wtrbury/Oxford PTSUNNY 52 34 50 W10 29.80S Bridgeport CLOUDY 52 38 58 SW6 29.79S Meriden MOSUNNY 56 34 43 W8 29.78S New Haven PTSUNNY 53 37 54 SW6 29.79S Chester N/A 57 34 41 NW5 29.78S Groton PTSUNNY 51 37 58 SW7 29.77S Wilimantic CLOUDY 56 34 43 W8 29.77R IN RI CITY SKY/WX TMP DP RH WIND PRES REMARKS Providence CLOUDY 54 34 46 W10 29.75R Block Island MOSUNNY 53 36 52 W13 29.78S Westerly CLOUDY 56 34 43 SW8 29.77S IN MA CITY SKY/WX TMP DP RH WIND PRES REMARKS Boston CLOUDY 53 36 52 SW10 29.71S Worcester CLOUDY 49 32 52 SW14 29.71S Westfield CLOUDY 50 34 54 S3 29.74S Provincetown MOSUNNY 55 39 54 W10 29.71S Nantucket SUNNY 57 37 47 W18 29.74R $$ ANZ330-335-338-340-345-350-353-355-191700- COASTAL MARINE OBSERVATIONS STATION/POSITION TIME SKY/WX TEMP WIND PRES VSBY WAVE AIR SEA DIR/SP/G HT/PER (UTC) (F) (DEG/KT/KT) (MB) (MI) (FT/S) NY HARB ENTRANCE 1450 47 41 230/ 6/ 6 1009.7 2/ 5 20 S FIRE ISLAND 1550 47 40 260/ 10/ 12 1009.6 3/ 5 GREAT SOUTH BAY NOT AVBL 23 SSW MONTAUK P 1450 46 44 1009.1 3/ 6 15 E BARNEGAT LI 1530 42 N/A 3/ 6 HUDSON CANYON 1450 51 1009.8 4/ 6 KINGS POINT 1536 54 38 1009.2 EXECUTION ROCKS NOT AVBL CENTRAL LI SOUND 1530 42 260/ 6/ 8 N/A 1 EASTERN LI SOUND NOT AVBL ROBBINS REEF 1536 58 290/ 11/ 13 1009.9 $$ >>>>>>>>>>>>>>>>>>>>>>>>>>>> KEY <<<<<<<<<<<<<<<<<<<<<<<<<<< > < > SKY/WX - Sky Condition/Present Weather < > TMP - Temperature in Fahrenheit < > DP - Dew Point in Fahrenheit < > RH - Relative Humidity in Percent < > WIND - Direction (from) and Speed in MPH < > PRES - Mean Sea Level Pressure (inches of Hg) < > WCI - Wind Chill Index < > VSB - VISIBILITY IN MILES < > HX - HEAT INDEX < > TC - TEMPERATURE IN CELSIUS < > VRB - VARIABLE WIND DIRECTION < > < >>>>>>>>>>>>>>>>>>>>>>>>>>>> KEY <<<<<<<<<<<<<<<<<<<<<<<<<<<

USA.gov is the U.S. government's official web portal to all federal, state and local government web resources and services.